Regional Weather Roundup
Issued by NWS

Home | Current Version | Previous Version | Graphics & Text | Print | Product List | Glossary On
Versions: 1 2 3 4 5 6 7 8 9 10 11 12 13 14 15 16 17 18 19 20 21 22 23 24 25 26 27
000
ASUS45 KTFX 252010
RWRMT
MONTANA REGIONAL WEATHER ROUNDUP
NATIONAL WEATHER SERVICE GREAT FALLS MT
200 PM MDT SUN SEP 25 2016

NOTE: "FAIR" INDICATES FEW OR NO CLOUDS BELOW 12000 FEET WITH NO
SIGNIFICANT WEATHER AND/OR OBSTRUCTIONS TO VISIBILITY.

MTZ001>007-043-252100-
WEST OF THE DIVIDE

CITY           SKY/WX    TMP DP  RH WIND       PRES   REMARKS
KALISPELL      CLOUDY    60  38  43 S12       30.41F
MISSOULA       CLOUDY    56  40  55 S3        30.46F
BUTTE          PTSUNNY   60  32  34 NW9       30.44F
MULLAN PASS    CLOUDY    50  35  56 CALM      30.49S
ANACONDA         N/A     64  28  25 W16G24      N/A
DEER LODGE       N/A     59  30  33 NE6       30.46S
EUREKA           N/A     61  37  41 SE7       30.39S
HAMILTON         N/A     63  41  45 CALM      30.45F
LIBBY            N/A     63  39  42 W3        30.38F
RONAN            N/A     61  36  39 SE5       30.44S
$$

MTZ008-052>055-252100-
SOUTHWEST MONTANA

CITY           SKY/WX    TMP DP  RH WIND       PRES   REMARKS
BOZEMAN        SUNNY     61  34  36 SE3       30.42F
DILLON         CLOUDY    62  33  33 VRB6      30.43F
W YELLOWSTONE  SUNNY     55  30  38 SW14      30.49S
ENNIS          SUNNY     63  28  27 CALM      30.48F
THREE FORKS      N/A     65   4   9 SW7       30.35F
TWIN BRIDGES     N/A     62  32  32 E7        30.38F
$$

MTZ009-010-012-014-046-048-049-054-252100-
EAST SLOPES AND CENTRAL MONTANA

CITY           SKY/WX    TMP DP  RH WIND       PRES   REMARKS
CUT BANK       SUNNY     66  35  31 W14G24    30.26F
GREAT FALLS    SUNNY     65  34  31 SW16G25   30.30F
MALMSTROM AFB  SUNNY     64  35  33 SW14G26   30.31F
HELENA         MOSUNNY   67  27  22 W17G26    30.39S
AUGUSTA          N/A     64  32  30 W14       30.31F
BOWMANS CRNR   MOCLDY    62  34  35 S17G25    30.31F
CHOTEAU          N/A     68  34  28 W12       30.31F
CONRAD           N/A     68  41  37 SW13      30.28F
FAIRFIELD        N/A     65  34  32 SW8G16    30.29F
POWER            N/A     64  32  29 W10G20    30.29F
RAYNESFORD       N/A     62  34  34 W16G24    30.32F
$$

MTZ011-013-016-021-045-047-050-051-252100-
NORTH CENTRAL MONTANA

CITY           SKY/WX    TMP DP  RH WIND       PRES   REMARKS
HAVRE          SUNNY     66  36  32 SW15      30.25F
LEWISTOWN      SUNNY     59  34  39 W10       30.33F
N BAR RANCH      N/A     61  34  36 NW10G18   30.34F
CHINOOK          N/A     64  37  36 W13       30.26F
DENTON         MOCLDY    61  32  34 W12G18    30.28F
GEYSER           N/A     64  32  30 W14       30.31F
GRASS RANGE      N/A     60  32  34 W17G25    30.29F
JUDITH GAP       N/A     58  35  42 S3G13     30.34F
ROY              N/A     62  37  39 MISG      30.30F
STANFORD         N/A     61  35  38 W5G13     30.32F
WINIFRED         N/A     61  35  38 MISG      30.31F
$$

MTZ017>020-022>027-061-062-252100-
NORTHEAST MONTANA

CITY           SKY/WX    TMP DP  RH WIND       PRES   REMARKS
GLASGOW        SUNNY     65  34  31 W15G28    30.25F
JORDAN           N/A     64  41  42 W12       30.28F
SIDNEY         SUNNY     65  32  29 NW28      30.21F
WOLF POINT     SUNNY     67  37  33 W23G29    30.24F
PLENTYWOOD       N/A     61  30  31 NW28G33   30.17S
POPLAR           N/A     64  36  34 W20G26    30.23S
SCOBEY           N/A     63  31  30 NW20      30.20
$$

MTZ028>42-056>058-252100-
SOUTHCENTRAL AND SOUTHEAST MONTANA

CITY           SKY/WX    TMP DP  RH WIND       PRES   REMARKS
BAKER          SUNNY     60  35  39 NW22G30   30.29F
BILLINGS       MOSUNNY   65  31  28 W15G22    30.34F
LIVINGSTON     SUNNY     65  25  22 W23G31    30.38S
MILES CITY     SUNNY     64  38  38 W16G24    30.30F
BIG TIMBER     SUNNY     63  28  27 W23G38    30.37F
EKALAKA          N/A     58  35  42 NW15      30.26
FORSYTH          N/A     63  36  36 SW12G21   30.30F
HARLOWTON        N/A     61  34  36 W25       30.34F
LAUREL           N/A     65  36  34 S6        30.30F
ROUNDUP          N/A     63  33  32 S10       30.21F
$$

REGIONAL REPORTS...DAKOTAS

CITY           SKY/WX    TMP DP  RH WIND       PRES   REMARKS
WILLISTON      SUNNY     64  33  31 NW29G37   30.19S
MINOT          MOSUNNY   63  36  36 W36G47    30.04S
DICKINSON      SUNNY     60  28  29 NW25G38   30.18F
CROSBY           N/A     61  32  33 NW26G37   30.16S
WATFORD CITY     N/A     59  34  38 NW24G33   30.19S
BISMARCK       PTSUNNY   62  33  33 NW23G38   30.11S
GRAND FORKS    CLOUDY    57  48  72 NW24G38   29.82R
FARGO          CLOUDY    60  46  59 NW26G39   29.88R
BUFFALO SD       N/A     63  32  31 NW32G39   30.21S
RAPID CITY     SUNNY     64  28  25 NW22G37   30.31F
$$

REGIONAL REPORTS...WYOMING/IDAHO/WASHINGTON

CITY           SKY/WX    TMP DP  RH WIND       PRES   REMARKS
GILLETTE       SUNNY     58  33  39 W6G17     30.38F
SHERIDAN       SUNNY     63  36  36 N6        30.36F
BUFFALO WY     MOSUNNY   58  37  45 SE7       30.39F
CODY           SUNNY     59  37  44 SE13      30.38F
YELLOWSTONE LA   N/A     52  32  46 VRB5      30.52F
IDAHO FALLS    SUNNY     59  35  40 W8        30.50S
SALMON         SUNNY     59  36  41 CALM      30.47F
BOISE          SUNNY     69  34  27 W7        30.45F
SPOKANE        MOSUNNY   69  36  29 SW9       30.40F
$$

REGIONAL REPORTS...ALBERTA

CITY           SKY/WX    TMP DP  RH WIND       PRES   REMARKS
EDMONTON       SUNNY     59  32  36 W7        30.19F
CALGARY        MOSUNNY   61  32  33 S6        30.21F
LETHBRIDGE     MOSUNNY   68  36  30 W25G33    30.22F
MEDICINE HAT   MOSUNNY   64  36  34 SW10      30.23F
WATERTON GATE    N/A     63  36  36 SW23G32     N/A
MILK RIVER       N/A     66  37  34 W15G23      N/A
$$

REGIONAL REPORTS...SASKATCHEWAN

CITY           SKY/WX    TMP DP  RH WIND       PRES   REMARKS
SWIFT CURRENT  SUNNY     61  30  31 NW18G26   30.21F
REGINA         MOSUNNY   61  34  36 NW24G36   30.14S
SASKATOON      MOSUNNY   63  28  27 NW21G30   30.15F
CYPRESS HILLS    N/A     57  37  47 NW6         N/A
VAL MARIE        N/A     64  34  32 W10         N/A
ROCKGLEN         N/A     59  30  33 NW18G26     N/A
ASSINIBOIA       N/A     63  30  29 W10         N/A
$$




USA.gov is the U.S. government's official web portal to all federal, state and local government web resources and services.